Location: Olympia
(47.0371°N, 122.8993°W)
Time: 07:46:32
(UTC-08:00)

BlueWalker 3 - Visible Passes

Search period start: 07 December 2025 00:00
Search period end: 17 December 2025 00:00
Orbit: 455 x 462 km, 53.2° (Epoch: 06 December)

Date Brightness Start Highest point End Pass type
(mag) Time Alt. Az. Time Alt. Az. Time Alt. Az.
07 Dec 3.4 18:26:19 10° WNW 18:29:35 32° SW 18:31:46 17° SSE visible
08 Dec 3.1 17:51:23 10° WNW 17:54:48 40° SW 17:58:13 10° SSE visible
09 Dec 2.7 17:16:29 10° WNW 17:20:01 50° SW 17:23:31 10° SE visible
10 Dec 5.2 18:21:14 10° WSW 18:22:05 11° SW 18:22:54 10° SW visible
11 Dec 5.0 17:45:26 10° W 17:47:19 14° SW 17:49:13 10° SSW visible
12 Dec 4.9 17:10:05 10° W 17:12:33 17° SW 17:15:00 10° S visible
